TITAN 3C TRANSTAGE DEB, 43454

Orbit data source: Space-Track

TITAN 3C TRANSTAGE DEB, 43454 is space debris in GEO originally from a launch on Sun, 09 Feb 1969 UTC launched from the Air Force Eastern Test Range (AFETR). Debris objects in space refer to the collection of defunct objects orbiting the Earth. Examples of debris include non-operational satellites, rocket bodies, and fragments generated from explosions, collisions, or faulty payload assembly.

Not visible in the next 10 days
Identifier
43454, 1969-013M
Orbit
GEO
Country
Flag of USUS
Related business
Manufacturer
Martin Marietta
Mission
Spacecraft
Bus & Motor
Unknown
Mass
Unknown
Launch date (UTC)
1969-02-09 (57 years ago)
Launch vehicle
Unknown
Launch site
Air Force Eastern Test Range (AFETR)
Object type
Payload
Rocket body
Debris
Shape & HBR
Unknown
Radar Cross Section
RCS unknown

Expand to show TLE details & history
Last TLE update: 4 days ago

TLE from 4 days ago
0 TITAN 3C TRANSTAGE DEB
1 43454U 69013M   25254.87099622 -.00000245  00000-0  00000-0 0  9992
2 43454   0.7251 164.9790 0553315 303.1667 257.9458  1.02846804 27777
Epoch: 2025-09-11T20:54Z
TLE epoch observation values (Epoch: 2025-09-11T20:54:14.073Z)
Latitude
-0.19344°
Longitude
55.31337°
Altitude
35,683.964 km
Speed
3.056 km/s
True Right ascension
23h 59m 59s
True Declination
0° 11' 36"
Sunlit
Object was in daylight at epoch
Visualization orbit readout
Latitude
Unknown
Longitude
Unknown
Altitude
Unknown
Speed
Unknown
Apparent Right ascension
Unknown
Apparent Declination
Unknown
Sunlit
N/A
Visualization observer readout
Local Sidereal Time
13:55:53
Azimuth
Unknown
Elevation
Unknown
Doppler factor
Unknown
Orbital elements
Apogee altitude
37,374.912 km
Perigee altitude
32,786.928 km
Semi-major axis
41,459.057 km
Eccentricity
0.05533
Inclination
0.7251°
RAAN
164.979°
Arg. of periapsis
303.1667°
True anomaly
251.84495°
Mean anomaly
257.9458°
Eccentric anomaly
254.88521°
Mean motion
0.25711 °/min
Orbital period
1,400.19 mins
BSTAR
0
Loading maneuver chart data...
Computing Atmospheric mass density...

Documentation

Showing up to 5 results
|